Location: Unspecified
(0.0000°N, 0.0000°E)
Time: 17:16:42
(UTC+00:00)

Hubble Space Telescope - Pass Details

Date: 11 December 2018
Orbit: 537 x 540 km, 28.5° (Epoch: 11 December)

Event Time Altitude Azimuth Distance (km) Brightness Sun altitude
Rises 19:06:10 0° 226° (SW) 2,676 5.7 -16.7°
Reaches altitude 10° 19:08:34 10° 217° (SW) 1,784 4.4 -17.2°
Maximum altitude 19:12:22 35° 150° (SSE) 866 1.7 -18.1°
Enters shadow 19:13:29 30° 116° (ESE) 977 1.7 -18.4°
